Year,Month,Day,Hour,Minute,Value (Times are PST for temperature in C)
2005,09,26,00,00,10.80
2005,09,26,00,01,10.80
2005,09,26,00,02,10.80
2005,09,26,00,03,10.80
2005,09,26,00,04,10.80
2005,09,26,00,05,10.80
2005,09,26,00,06,10.80
2005,09,26,00,07,10.80
2005,09,26,00,08,10.80
2005,09,26,00,09,10.80
2005,09,26,00,10,10.80
2005,09,26,00,11,10.80
2005,09,26,00,12,10.80
2005,09,26,00,13,10.80
2005,09,26,00,14,10.80
2005,09,26,00,15,10.80
2005,09,26,00,16,10.80
2005,09,26,00,17,10.80
2005,09,26,00,18,10.80
2005,09,26,00,19,10.70
2005,09,26,00,20,10.70
2005,09,26,00,21,10.70
2005,09,26,00,22,10.70
2005,09,26,00,23,10.70
2005,09,26,00,24,10.70
2005,09,26,00,25,10.70
2005,09,26,00,26,10.70
2005,09,26,00,27,10.70
2005,09,26,00,28,10.70
2005,09,26,00,29,10.70
2005,09,26,00,30,10.70
2005,09,26,00,31,10.70
2005,09,26,00,32,10.70
2005,09,26,00,33,10.70
2005,09,26,00,34,10.70
2005,09,26,00,35,10.70
2005,09,26,00,36,10.70
2005,09,26,00,37,10.70
2005,09,26,00,38,10.70
2005,09,26,00,39,10.70
2005,09,26,00,40,10.70
2005,09,26,00,41,10.70
2005,09,26,00,42,10.70
2005,09,26,00,43,10.70
2005,09,26,00,44,10.70
2005,09,26,00,45,10.70
2005,09,26,00,46,10.70
2005,09,26,00,47,10.70
2005,09,26,00,48,10.70
2005,09,26,00,49,10.70
2005,09,26,00,50,10.70
2005,09,26,00,51,10.70
2005,09,26,00,52,10.60
2005,09,26,00,53,10.60
2005,09,26,00,54,10.60
2005,09,26,00,55,10.60
2005,09,26,00,56,10.60
2005,09,26,00,57,10.60
2005,09,26,00,58,10.60
2005,09,26,00,59,10.60
2005,09,26,01,00,10.50
2005,09,26,01,01,10.40
2005,09,26,01,02,10.40
2005,09,26,01,03,10.40
2005,09,26,01,04,10.40
2005,09,26,01,05,10.40
2005,09,26,01,06,10.40
2005,09,26,01,07,10.40
2005,09,26,01,08,10.30
2005,09,26,01,09,10.30
2005,09,26,01,10,10.20
2005,09,26,01,11,10.20
2005,09,26,01,12,10.10
2005,09,26,01,13,10.10
2005,09,26,01,14,10.10
2005,09,26,01,15,10.10
2005,09,26,01,16,10.10
2005,09,26,01,17,10.10
2005,09,26,01,18,10.00
2005,09,26,01,19,9.90
2005,09,26,01,20,9.90
2005,09,26,01,21,9.90
2005,09,26,01,22,9.90
2005,09,26,01,23,9.90
2005,09,26,01,24,9.90
2005,09,26,01,25,9.90
2005,09,26,01,26,9.80
2005,09,26,01,27,9.80
2005,09,26,01,28,9.80
2005,09,26,01,29,9.80
2005,09,26,01,30,9.70
2005,09,26,01,31,9.70
2005,09,26,01,32,9.70
2005,09,26,01,33,9.70
2005,09,26,01,34,9.70
2005,09,26,01,35,9.70
2005,09,26,01,36,9.70
2005,09,26,01,37,9.70
2005,09,26,01,38,9.70
2005,09,26,01,39,9.70
2005,09,26,01,40,9.70
2005,09,26,01,41,9.70
2005,09,26,01,42,9.70
2005,09,26,01,43,9.60
2005,09,26,01,44,9.60
2005,09,26,01,45,9.60
2005,09,26,01,46,9.60
2005,09,26,01,47,9.70
2005,09,26,01,48,9.70
2005,09,26,01,49,9.70
2005,09,26,01,50,9.60
2005,09,26,01,51,9.60
2005,09,26,01,52,9.60
2005,09,26,01,53,9.60
2005,09,26,01,54,9.60
2005,09,26,01,55,9.60
2005,09,26,01,56,9.60
2005,09,26,01,57,9.50
2005,09,26,01,58,9.50
2005,09,26,01,59,9.50
2005,09,26,02,00,9.50
2005,09,26,02,01,9.50
2005,09,26,02,02,9.50
2005,09,26,02,03,9.40
2005,09,26,02,04,9.40
2005,09,26,02,05,9.40
2005,09,26,02,06,9.40
2005,09,26,02,07,9.40
2005,09,26,02,08,9.40
2005,09,26,02,09,9.40
2005,09,26,02,10,9.40
2005,09,26,02,11,9.40
2005,09,26,02,12,9.30
2005,09,26,02,13,9.30
2005,09,26,02,14,9.30
2005,09,26,02,15,9.30
2005,09,26,02,16,9.30
2005,09,26,02,17,9.30
2005,09,26,02,18,9.30
2005,09,26,02,19,9.30
2005,09,26,02,20,9.30
2005,09,26,02,21,9.40
2005,09,26,02,22,9.40
2005,09,26,02,23,9.40
2005,09,26,02,24,9.40
2005,09,26,02,25,9.40
2005,09,26,02,26,9.40
2005,09,26,02,27,9.40
2005,09,26,02,28,9.40
2005,09,26,02,29,9.40
2005,09,26,02,30,9.40
2005,09,26,02,31,9.40
2005,09,26,02,32,9.40
2005,09,26,02,33,9.40
2005,09,26,02,34,9.40
2005,09,26,02,35,9.40
2005,09,26,02,36,9.40
2005,09,26,02,37,9.40
2005,09,26,02,38,9.40
2005,09,26,02,39,9.30
2005,09,26,02,40,9.30
2005,09,26,02,41,9.30
2005,09,26,02,42,9.30
2005,09,26,02,43,9.30
2005,09,26,02,44,9.30
2005,09,26,02,45,9.20
2005,09,26,02,46,9.20
2005,09,26,02,47,9.20
2005,09,26,02,48,9.20
2005,09,26,02,49,9.20
2005,09,26,02,50,9.20
2005,09,26,02,51,9.20
2005,09,26,02,52,9.20
2005,09,26,02,53,9.20
2005,09,26,02,54,9.20
2005,09,26,02,55,9.10
2005,09,26,02,56,9.10
2005,09,26,02,57,9.10
2005,09,26,02,58,9.10
2005,09,26,02,59,9.10
2005,09,26,03,00,9.10
2005,09,26,03,01,9.20
2005,09,26,03,02,9.20
2005,09,26,03,03,9.20
2005,09,26,03,04,9.20
2005,09,26,03,05,9.20
2005,09,26,03,06,9.20
2005,09,26,03,07,9.20
2005,09,26,03,08,9.20
2005,09,26,03,09,9.10
2005,09,26,03,10,9.10
2005,09,26,03,11,9.10
2005,09,26,03,12,9.10
2005,09,26,03,13,9.00
2005,09,26,03,14,9.00
2005,09,26,03,15,9.00
2005,09,26,03,16,9.00
2005,09,26,03,17,9.00
2005,09,26,03,18,9.00
2005,09,26,03,19,8.90
2005,09,26,03,20,8.90
2005,09,26,03,21,8.90
2005,09,26,03,22,8.90
2005,09,26,03,23,8.90
2005,09,26,03,24,8.90
2005,09,26,03,25,8.80
2005,09,26,03,26,8.80
2005,09,26,03,27,8.80
2005,09,26,03,28,8.80
2005,09,26,03,29,8.80
2005,09,26,03,30,8.80
2005,09,26,03,31,8.80
2005,09,26,03,32,8.90
2005,09,26,03,33,8.90
2005,09,26,03,34,8.90
2005,09,26,03,35,8.90
2005,09,26,03,36,8.90
2005,09,26,03,37,8.90
2005,09,26,03,38,8.90
2005,09,26,03,39,8.90
2005,09,26,03,40,8.90
2005,09,26,03,41,8.90
2005,09,26,03,42,8.90
2005,09,26,03,43,8.90
2005,09,26,03,44,8.90
2005,09,26,03,45,8.90
2005,09,26,03,46,8.90
2005,09,26,03,47,8.90
2005,09,26,03,48,8.90
2005,09,26,03,49,8.90
2005,09,26,03,50,8.90
2005,09,26,03,51,8.90
2005,09,26,03,52,8.90
2005,09,26,03,53,8.90
2005,09,26,03,54,8.90
2005,09,26,03,55,8.90
2005,09,26,03,56,8.80
2005,09,26,03,57,8.80
2005,09,26,03,58,8.90
2005,09,26,03,59,8.90
2005,09,26,04,00,8.90
2005,09,26,04,01,8.90
2005,09,26,04,02,8.90
2005,09,26,04,03,8.90
2005,09,26,04,04,8.90
2005,09,26,04,05,8.90
2005,09,26,04,06,8.90
2005,09,26,04,07,8.90
2005,09,26,04,08,8.90
2005,09,26,04,09,9.00
2005,09,26,04,10,9.00
2005,09,26,04,11,9.00
2005,09,26,04,12,9.00
2005,09,26,04,13,9.00
2005,09,26,04,14,9.00
2005,09,26,04,15,9.00
2005,09,26,04,16,9.00
2005,09,26,04,17,9.00
2005,09,26,04,18,9.00
2005,09,26,04,19,9.00
2005,09,26,04,20,9.00
2005,09,26,04,21,9.00
2005,09,26,04,22,9.00
2005,09,26,04,23,8.90
2005,09,26,04,24,8.90
2005,09,26,04,25,8.90
2005,09,26,04,26,8.90
2005,09,26,04,27,8.80
2005,09,26,04,28,8.80
2005,09,26,04,29,8.80
2005,09,26,04,30,8.80
2005,09,26,04,31,8.80
2005,09,26,04,32,8.70
2005,09,26,04,33,8.70
2005,09,26,04,34,8.60
2005,09,26,04,35,8.60
2005,09,26,04,36,8.60
2005,09,26,04,37,8.60
2005,09,26,04,38,8.50
2005,09,26,04,39,8.50
2005,09,26,04,40,8.50
2005,09,26,04,41,8.50
2005,09,26,04,42,8.50
2005,09,26,04,43,8.50
2005,09,26,04,44,8.40
2005,09,26,04,45,8.40
2005,09,26,04,46,8.40
2005,09,26,04,47,8.40
2005,09,26,04,48,8.40
2005,09,26,04,49,8.40
2005,09,26,04,50,8.40
2005,09,26,04,51,8.40
2005,09,26,04,52,8.40
2005,09,26,04,53,8.40
2005,09,26,04,54,8.50
2005,09,26,04,55,8.50
2005,09,26,04,56,8.50
2005,09,26,04,57,8.50
2005,09,26,04,58,8.50
2005,09,26,04,59,8.50
2005,09,26,05,00,8.50
2005,09,26,05,01,8.50
2005,09,26,05,02,8.60
2005,09,26,05,03,8.60
2005,09,26,05,04,8.60
2005,09,26,05,05,8.60
2005,09,26,05,06,8.60
2005,09,26,05,07,8.60
2005,09,26,05,08,8.60
2005,09,26,05,09,8.60
2005,09,26,05,10,8.70
2005,09,26,05,11,8.70
2005,09,26,05,12,8.70
2005,09,26,05,13,8.70
2005,09,26,05,14,8.70
2005,09,26,05,15,8.70
2005,09,26,05,16,8.60
2005,09,26,05,17,8.60
2005,09,26,05,18,8.60
2005,09,26,05,19,8.60
2005,09,26,05,20,8.60
2005,09,26,05,21,8.60
2005,09,26,05,22,8.60
2005,09,26,05,23,8.60
2005,09,26,05,24,8.50
2005,09,26,05,25,8.50
2005,09,26,05,26,8.50
2005,09,26,05,27,8.50
2005,09,26,05,28,8.50
2005,09,26,05,29,8.50
2005,09,26,05,30,8.40
2005,09,26,05,31,8.40
2005,09,26,05,32,8.40
2005,09,26,05,33,8.40
2005,09,26,05,34,8.40
2005,09,26,05,35,8.40
2005,09,26,05,36,8.40
2005,09,26,05,37,8.30
2005,09,26,05,38,8.30
2005,09,26,05,39,8.30
2005,09,26,05,40,8.30
2005,09,26,05,41,8.30
2005,09,26,05,42,8.30
2005,09,26,05,43,8.30
2005,09,26,05,44,8.30
2005,09,26,05,45,8.20
2005,09,26,05,46,8.20
2005,09,26,05,47,8.20
2005,09,26,05,48,8.20
2005,09,26,05,49,8.20
2005,09,26,05,50,8.20
2005,09,26,05,51,8.20
2005,09,26,05,52,8.20
2005,09,26,05,53,8.20
2005,09,26,05,54,8.20
2005,09,26,05,55,8.20
2005,09,26,05,56,8.20
2005,09,26,05,57,8.20
2005,09,26,05,58,8.20
2005,09,26,05,59,8.20
2005,09,26,06,00,8.20
2005,09,26,06,01,8.20
2005,09,26,06,02,8.20
2005,09,26,06,03,8.20
2005,09,26,06,04,8.20
2005,09,26,06,05,8.20
2005,09,26,06,06,8.20
2005,09,26,06,07,8.20
2005,09,26,06,08,8.20
2005,09,26,06,09,8.20
2005,09,26,06,10,8.20
2005,09,26,06,11,8.20
2005,09,26,06,12,8.20
2005,09,26,06,13,8.20
2005,09,26,06,14,8.20
2005,09,26,06,15,8.20
2005,09,26,06,16,8.20
2005,09,26,06,17,8.20
2005,09,26,06,18,8.20
2005,09,26,06,19,8.20
2005,09,26,06,20,8.20
2005,09,26,06,21,8.20
2005,09,26,06,22,8.20
2005,09,26,06,23,8.20
2005,09,26,06,24,8.20
2005,09,26,06,25,8.20
2005,09,26,06,26,8.20
2005,09,26,06,27,8.20
2005,09,26,06,28,8.20
2005,09,26,06,29,8.20
2005,09,26,06,30,8.20
2005,09,26,06,31,8.20
2005,09,26,06,32,8.20
2005,09,26,06,33,8.10
2005,09,26,06,34,8.10
2005,09,26,06,35,8.10
2005,09,26,06,36,8.10
2005,09,26,06,37,8.10
2005,09,26,06,38,8.00
2005,09,26,06,39,8.00
2005,09,26,06,40,7.90
2005,09,26,06,41,7.90
2005,09,26,06,42,7.90
2005,09,26,06,43,7.90
2005,09,26,06,44,7.90
2005,09,26,06,45,7.90
2005,09,26,06,46,7.80
2005,09,26,06,47,7.80
2005,09,26,06,48,7.80
2005,09,26,06,49,7.80
2005,09,26,06,50,7.80
2005,09,26,06,51,7.80
2005,09,26,06,52,7.80
2005,09,26,06,53,7.80
2005,09,26,06,54,7.80
2005,09,26,06,55,7.80
2005,09,26,06,56,7.80
2005,09,26,06,57,7.80
2005,09,26,06,58,7.80
2005,09,26,06,59,7.70
2005,09,26,07,00,7.70
2005,09,26,07,01,7.70
2005,09,26,07,02,7.70
2005,09,26,07,03,7.70
2005,09,26,07,04,7.70
2005,09,26,07,05,7.70
2005,09,26,07,06,7.80
2005,09,26,07,07,7.80
2005,09,26,07,08,7.80
2005,09,26,07,09,7.80
2005,09,26,07,10,7.80
2005,09,26,07,11,7.80
2005,09,26,07,12,7.80
2005,09,26,07,13,7.80
2005,09,26,07,14,7.80
2005,09,26,07,15,7.80
2005,09,26,07,16,7.80
2005,09,26,07,17,7.90
2005,09,26,07,18,7.90
2005,09,26,07,19,8.00
2005,09,26,07,20,8.00
2005,09,26,07,21,8.10
2005,09,26,07,22,8.20
2005,09,26,07,23,8.20
2005,09,26,07,24,8.30
2005,09,26,07,25,8.40
2005,09,26,07,26,8.40
2005,09,26,07,27,8.50
2005,09,26,07,28,8.60
2005,09,26,07,29,8.60
2005,09,26,07,30,8.70
2005,09,26,07,31,8.70
2005,09,26,07,32,8.70
2005,09,26,07,33,8.70
2005,09,26,07,34,8.70
2005,09,26,07,35,8.80
2005,09,26,07,36,8.80
2005,09,26,07,37,8.90
2005,09,26,07,38,8.90
2005,09,26,07,39,8.90
2005,09,26,07,40,9.00
2005,09,26,07,41,9.00
2005,09,26,07,42,9.10
2005,09,26,07,43,9.10
2005,09,26,07,44,9.20
2005,09,26,07,45,9.20
2005,09,26,07,46,9.30
2005,09,26,07,47,9.30
2005,09,26,07,48,9.40
2005,09,26,07,49,9.50
2005,09,26,07,50,9.50
2005,09,26,07,51,9.50
2005,09,26,07,52,9.60
2005,09,26,07,53,9.60
2005,09,26,07,54,9.60
2005,09,26,07,55,9.70
2005,09,26,07,56,9.70
2005,09,26,07,57,9.70
2005,09,26,07,58,9.70
2005,09,26,07,59,9.70
2005,09,26,08,00,9.70
2005,09,26,08,01,9.80
2005,09,26,08,02,9.80
2005,09,26,08,03,9.90
2005,09,26,08,04,9.90
2005,09,26,08,05,9.90
2005,09,26,08,06,9.90
2005,09,26,08,07,9.90
2005,09,26,08,08,9.90
2005,09,26,08,09,9.90
2005,09,26,08,10,9.90
2005,09,26,08,11,9.90
2005,09,26,08,12,10.00
2005,09,26,08,13,10.10
2005,09,26,08,14,10.10
2005,09,26,08,15,10.10
2005,09,26,08,16,10.10
2005,09,26,08,17,10.10
2005,09,26,08,18,10.10
2005,09,26,08,19,10.10
2005,09,26,08,20,10.10
2005,09,26,08,21,10.10
2005,09,26,08,22,10.10
2005,09,26,08,23,10.10
2005,09,26,08,24,10.10
2005,09,26,08,25,10.10
2005,09,26,08,26,10.10
2005,09,26,08,27,10.10
2005,09,26,08,28,10.10
2005,09,26,08,29,10.10
2005,09,26,08,30,10.10
2005,09,26,08,31,10.10
2005,09,26,08,32,10.10
2005,09,26,08,33,10.10
2005,09,26,08,34,10.10
2005,09,26,08,35,10.10
2005,09,26,08,36,10.20
2005,09,26,08,37,10.20
2005,09,26,08,38,10.20
2005,09,26,08,39,10.30
2005,09,26,08,40,10.30
2005,09,26,08,41,10.30
2005,09,26,08,42,10.30
2005,09,26,08,43,10.40
2005,09,26,08,44,10.40
2005,09,26,08,45,10.40
2005,09,26,08,46,10.40
2005,09,26,08,47,10.40
2005,09,26,08,48,10.40
2005,09,26,08,49,10.40
2005,09,26,08,50,10.40
2005,09,26,08,51,10.50
2005,09,26,08,52,10.60
2005,09,26,08,53,10.60
2005,09,26,08,54,10.60
2005,09,26,08,55,10.60
2005,09,26,08,56,10.70
2005,09,26,08,57,10.60
2005,09,26,08,58,10.60
2005,09,26,08,59,10.60
2005,09,26,09,00,10.60
2005,09,26,09,01,10.60
2005,09,26,09,02,10.60
2005,09,26,09,03,10.60
2005,09,26,09,04,10.60
2005,09,26,09,05,10.60
2005,09,26,09,06,10.60
2005,09,26,09,07,10.60
2005,09,26,09,08,10.60
2005,09,26,09,09,10.60
2005,09,26,09,10,10.60
2005,09,26,09,11,10.60
2005,09,26,09,12,10.60
2005,09,26,09,13,10.70
2005,09,26,09,14,10.90
2005,09,26,09,15,10.90
2005,09,26,09,16,10.90
2005,09,26,09,17,10.90
2005,09,26,09,18,10.80
2005,09,26,09,19,10.70
2005,09,26,09,20,10.70
2005,09,26,09,21,10.70
2005,09,26,09,22,10.60
2005,09,26,09,23,10.60
2005,09,26,09,24,10.60
2005,09,26,09,25,10.60
2005,09,26,09,26,10.60
2005,09,26,09,27,10.60
2005,09,26,09,28,10.60
2005,09,26,09,29,10.70
2005,09,26,09,30,10.70
2005,09,26,09,31,10.80
2005,09,26,09,32,10.80
2005,09,26,09,33,10.80
2005,09,26,09,34,10.80
2005,09,26,09,35,10.80
2005,09,26,09,36,10.80
2005,09,26,09,37,10.80
2005,09,26,09,38,10.90
2005,09,26,09,39,10.90
2005,09,26,09,40,11.10
2005,09,26,09,41,11.10
2005,09,26,09,42,11.10
2005,09,26,09,43,11.20
2005,09,26,09,44,11.30
2005,09,26,09,45,11.40
2005,09,26,09,46,11.30
2005,09,26,09,47,11.30
2005,09,26,09,48,11.20
2005,09,26,09,49,11.20
2005,09,26,09,50,11.20
2005,09,26,09,51,11.20
2005,09,26,09,52,11.20
2005,09,26,09,53,11.20
2005,09,26,09,54,11.20
2005,09,26,09,55,11.30
2005,09,26,09,56,11.30
2005,09,26,09,57,11.40
2005,09,26,09,58,11.40
2005,09,26,09,59,11.40
2005,09,26,10,00,11.40
2005,09,26,10,01,11.40
2005,09,26,10,02,11.40
2005,09,26,10,03,11.40
2005,09,26,10,04,11.40
2005,09,26,10,05,11.40
2005,09,26,10,06,11.40
2005,09,26,10,07,11.40
2005,09,26,10,08,11.40
2005,09,26,10,09,11.40
2005,09,26,10,10,11.40
2005,09,26,10,11,11.40
2005,09,26,10,12,11.40
2005,09,26,10,13,11.40
2005,09,26,10,14,11.40
2005,09,26,10,15,11.40
2005,09,26,10,16,11.30
2005,09,26,10,17,11.30
2005,09,26,10,18,11.30
2005,09,26,10,19,11.30
2005,09,26,10,20,11.40
2005,09,26,10,21,11.40
2005,09,26,10,22,11.40
2005,09,26,10,23,11.40
2005,09,26,10,24,11.40
2005,09,26,10,25,11.40
2005,09,26,10,26,11.40
2005,09,26,10,27,11.60
2005,09,26,10,28,11.60
2005,09,26,10,29,11.70
2005,09,26,10,30,11.70
2005,09,26,10,31,11.70
2005,09,26,10,32,11.70
2005,09,26,10,33,11.70
2005,09,26,10,34,11.60
2005,09,26,10,35,11.60
2005,09,26,10,36,11.50
2005,09,26,10,37,11.50
2005,09,26,10,38,11.60
2005,09,26,10,39,11.60
2005,09,26,10,40,11.60
2005,09,26,10,41,11.60
2005,09,26,10,42,11.60
2005,09,26,10,43,11.60
2005,09,26,10,44,11.60
2005,09,26,10,45,11.50
2005,09,26,10,46,11.40
2005,09,26,10,47,11.30
2005,09,26,10,48,11.30
2005,09,26,10,49,11.40
2005,09,26,10,50,11.40
2005,09,26,10,51,11.30
2005,09,26,10,52,11.30
2005,09,26,10,53,11.20
2005,09,26,10,54,11.20
2005,09,26,10,55,11.10
2005,09,26,10,56,11.10
2005,09,26,10,57,11.10
2005,09,26,10,58,11.10
2005,09,26,10,59,11.20
2005,09,26,11,00,11.20
2005,09,26,11,01,11.20
2005,09,26,11,02,11.30
2005,09,26,11,03,11.40
2005,09,26,11,04,11.40
2005,09,26,11,05,11.50
2005,09,26,11,06,11.60
2005,09,26,11,07,11.60
2005,09,26,11,08,11.80
2005,09,26,11,09,11.80
2005,09,26,11,10,11.80
2005,09,26,11,11,11.80
2005,09,26,11,12,11.80
2005,09,26,11,13,11.80
2005,09,26,11,14,11.70
2005,09,26,11,15,11.50
2005,09,26,11,16,11.40
2005,09,26,11,17,11.30
2005,09,26,11,18,11.20
2005,09,26,11,19,11.30
2005,09,26,11,20,11.20
2005,09,26,11,21,11.20
2005,09,26,11,22,11.20
2005,09,26,11,23,11.30
2005,09,26,11,24,11.40
2005,09,26,11,25,11.40
2005,09,26,11,26,11.40
2005,09,26,11,27,11.40
2005,09,26,11,28,11.40
2005,09,26,11,29,11.40
2005,09,26,11,30,11.40
2005,09,26,11,31,11.60
2005,09,26,11,32,11.70
2005,09,26,11,33,11.70
2005,09,26,11,34,11.60
2005,09,26,11,35,11.60
2005,09,26,11,36,11.70
2005,09,26,11,37,11.70
2005,09,26,11,38,11.70
2005,09,26,11,39,11.70
2005,09,26,11,40,11.70
2005,09,26,11,41,11.80
2005,09,26,11,42,11.80
2005,09,26,11,43,12.00
2005,09,26,11,44,12.00
2005,09,26,11,45,11.90
2005,09,26,11,46,11.90
2005,09,26,11,47,12.00
2005,09,26,11,48,12.00
2005,09,26,11,49,12.00
2005,09,26,11,50,12.10
2005,09,26,11,51,12.10
2005,09,26,11,52,12.20
2005,09,26,11,53,12.30
2005,09,26,11,54,12.50
2005,09,26,11,55,12.70
2005,09,26,11,56,12.80
2005,09,26,11,57,12.90
2005,09,26,11,58,13.00
2005,09,26,11,59,13.20
2005,09,26,12,00,13.30
2005,09,26,12,01,13.40
2005,09,26,12,02,13.50
2005,09,26,12,03,13.60
2005,09,26,12,04,13.70
2005,09,26,12,05,13.90
2005,09,26,12,06,14.00
2005,09,26,12,07,14.10
2005,09,26,12,08,14.30
2005,09,26,12,09,14.40
2005,09,26,12,10,14.50
2005,09,26,12,11,14.50
2005,09,26,12,12,14.60
2005,09,26,12,13,14.80
2005,09,26,12,14,14.90
2005,09,26,12,15,15.10
2005,09,26,12,16,15.30
2005,09,26,12,17,15.30
2005,09,26,12,18,15.40
2005,09,26,12,19,15.50
2005,09,26,12,20,15.70
2005,09,26,12,21,15.70
2005,09,26,12,22,15.70
2005,09,26,12,23,15.60
2005,09,26,12,24,15.60
2005,09,26,12,25,15.50
2005,09,26,12,26,15.60
2005,09,26,12,27,15.60
2005,09,26,12,28,15.70
2005,09,26,12,29,15.70
2005,09,26,12,30,15.80
2005,09,26,12,31,15.80
2005,09,26,12,32,15.80
2005,09,26,12,33,15.90
2005,09,26,12,34,16.00
2005,09,26,12,35,16.10
2005,09,26,12,36,16.20
2005,09,26,12,37,16.40
2005,09,26,12,38,16.50
2005,09,26,12,39,16.70
2005,09,26,12,40,16.90
2005,09,26,12,41,17.00
2005,09,26,12,42,17.00
2005,09,26,12,43,17.00
2005,09,26,12,44,17.10
2005,09,26,12,45,17.10
2005,09,26,12,46,17.20
2005,09,26,12,47,17.30
2005,09,26,12,48,17.40
2005,09,26,12,49,17.50
2005,09,26,12,50,17.50
2005,09,26,12,51,17.50
2005,09,26,12,52,17.50
2005,09,26,12,53,17.60
2005,09,26,12,54,17.60
2005,09,26,12,55,17.70
2005,09,26,12,56,17.70
2005,09,26,12,57,17.80
2005,09,26,12,58,17.80
2005,09,26,12,59,17.80
2005,09,26,13,00,17.90
2005,09,26,13,01,18.00
2005,09,26,13,02,18.20
2005,09,26,13,03,18.30
2005,09,26,13,04,18.40
2005,09,26,13,05,18.50
2005,09,26,13,06,18.50
2005,09,26,13,07,18.60
2005,09,26,13,08,18.60
2005,09,26,13,09,18.60
2005,09,26,13,10,18.60
2005,09,26,13,11,18.70
2005,09,26,13,12,18.80
2005,09,26,13,13,18.90
2005,09,26,13,14,18.90
2005,09,26,13,15,18.90
2005,09,26,13,16,18.90
2005,09,26,13,17,19.00
2005,09,26,13,18,19.10
2005,09,26,13,19,19.00
2005,09,26,13,20,18.90
2005,09,26,13,21,18.90
2005,09,26,13,22,18.90
2005,09,26,13,23,18.90
2005,09,26,13,24,18.90
2005,09,26,13,25,18.90
2005,09,26,13,26,18.90
2005,09,26,13,27,18.90
2005,09,26,13,28,18.90
2005,09,26,13,29,18.80
2005,09,26,13,30,18.70
2005,09,26,13,31,18.60
2005,09,26,13,32,18.50
2005,09,26,13,33,18.40
2005,09,26,13,34,18.50
2005,09,26,13,35,18.60
2005,09,26,13,36,18.70
2005,09,26,13,37,18.90
2005,09,26,13,38,19.00
2005,09,26,13,39,19.10
2005,09,26,13,40,19.10
2005,09,26,13,41,19.10
2005,09,26,13,42,19.10
2005,09,26,13,43,19.20
2005,09,26,13,44,19.30
2005,09,26,13,45,19.50
2005,09,26,13,46,19.60
2005,09,26,13,47,19.80
2005,09,26,13,48,19.90
2005,09,26,13,49,20.00
2005,09,26,13,50,20.10
2005,09,26,13,51,20.00
2005,09,26,13,52,19.90
2005,09,26,13,53,19.90
2005,09,26,13,54,19.90
2005,09,26,13,55,19.90
2005,09,26,13,56,19.90
2005,09,26,13,57,19.90
2005,09,26,13,58,19.80
2005,09,26,13,59,19.70
2005,09,26,14,00,19.60
2005,09,26,14,01,19.60
2005,09,26,14,02,19.60
2005,09,26,14,03,19.60
2005,09,26,14,04,19.60
2005,09,26,14,05,19.60
2005,09,26,14,06,19.60
2005,09,26,14,07,19.60
2005,09,26,14,08,19.50
2005,09,26,14,09,19.50
2005,09,26,14,10,19.50
2005,09,26,14,11,19.50
2005,09,26,14,12,19.40
2005,09,26,14,13,19.40
2005,09,26,14,14,19.50
2005,09,26,14,15,19.40
2005,09,26,14,16,19.50
2005,09,26,14,17,19.50
2005,09,26,14,18,19.50
2005,09,26,14,19,19.50
2005,09,26,14,20,19.50
2005,09,26,14,21,19.60
2005,09,26,14,22,19.70
2005,09,26,14,23,19.70
2005,09,26,14,24,19.80
2005,09,26,14,25,19.90
2005,09,26,14,26,19.90
2005,09,26,14,27,19.90
2005,09,26,14,28,20.00
2005,09,26,14,29,20.00
2005,09,26,14,30,19.90
2005,09,26,14,31,19.90
2005,09,26,14,32,19.90
2005,09,26,14,33,19.90
2005,09,26,14,34,19.90
2005,09,26,14,35,19.90
2005,09,26,14,36,19.90
2005,09,26,14,37,19.90
2005,09,26,14,38,19.90
2005,09,26,14,39,19.90
2005,09,26,14,40,19.90
2005,09,26,14,41,19.90
2005,09,26,14,42,19.90
2005,09,26,14,43,19.90
2005,09,26,14,44,19.90
2005,09,26,14,45,19.80
2005,09,26,14,46,19.80
2005,09,26,14,47,19.80
2005,09,26,14,48,19.80
2005,09,26,14,49,19.70
2005,09,26,14,50,19.70
2005,09,26,14,51,19.70
2005,09,26,14,52,19.80
2005,09,26,14,53,19.80
2005,09,26,14,54,19.70
2005,09,26,14,55,19.80
2005,09,26,14,56,19.80
2005,09,26,14,57,19.80
2005,09,26,14,58,19.90
2005,09,26,14,59,20.00
2005,09,26,15,00,20.10
2005,09,26,15,01,20.20
2005,09,26,15,02,20.20
2005,09,26,15,03,20.40
2005,09,26,15,04,20.40
2005,09,26,15,05,20.30
2005,09,26,15,06,20.30
2005,09,26,15,07,20.20
2005,09,26,15,08,20.10
2005,09,26,15,09,20.10
2005,09,26,15,10,20.10
2005,09,26,15,11,20.10
2005,09,26,15,12,20.10
2005,09,26,15,13,19.90
2005,09,26,15,14,19.70
2005,09,26,15,15,19.50
2005,09,26,15,16,19.40
2005,09,26,15,17,19.40
2005,09,26,15,18,19.40
2005,09,26,15,19,19.40
2005,09,26,15,20,19.50
2005,09,26,15,21,19.50
2005,09,26,15,22,19.60
2005,09,26,15,23,19.60
2005,09,26,15,24,19.70
2005,09,26,15,25,19.70
2005,09,26,15,26,19.80
2005,09,26,15,27,19.70
2005,09,26,15,28,19.80
2005,09,26,15,29,19.80
2005,09,26,15,30,19.80
2005,09,26,15,31,19.90
2005,09,26,15,32,19.80
2005,09,26,15,33,19.80
2005,09,26,15,34,19.70
2005,09,26,15,35,19.70
2005,09,26,15,36,19.70
2005,09,26,15,37,19.60
2005,09,26,15,38,19.50
2005,09,26,15,39,19.50
2005,09,26,15,40,19.50
2005,09,26,15,41,19.50
2005,09,26,15,42,19.50
2005,09,26,15,43,19.50
2005,09,26,15,44,19.50
2005,09,26,15,45,19.50
2005,09,26,15,46,19.50
2005,09,26,15,47,19.50
2005,09,26,15,48,19.50
2005,09,26,15,49,19.50
2005,09,26,15,50,19.50
2005,09,26,15,51,19.40
2005,09,26,15,52,19.50
2005,09,26,15,53,19.60
2005,09,26,15,54,19.60
2005,09,26,15,55,19.60
2005,09,26,15,56,19.60
2005,09,26,15,57,19.60
2005,09,26,15,58,19.50
2005,09,26,15,59,19.50
2005,09,26,16,00,19.50
2005,09,26,16,01,19.50
2005,09,26,16,02,19.50
2005,09,26,16,03,19.50
2005,09,26,16,04,19.50
2005,09,26,16,05,19.60
2005,09,26,16,06,19.60
2005,09,26,16,07,19.60
2005,09,26,16,08,19.60
2005,09,26,16,09,19.50
2005,09,26,16,10,19.40
2005,09,26,16,11,19.40
2005,09,26,16,12,19.40
2005,09,26,16,13,19.40
2005,09,26,16,14,19.50
2005,09,26,16,15,19.40
2005,09,26,16,16,19.40
2005,09,26,16,17,19.40
2005,09,26,16,18,19.40
2005,09,26,16,19,19.40
2005,09,26,16,20,19.40
2005,09,26,16,21,19.30
2005,09,26,16,22,19.40
2005,09,26,16,23,19.40
2005,09,26,16,24,19.40
2005,09,26,16,25,19.30
2005,09,26,16,26,19.40
2005,09,26,16,27,19.50
2005,09,26,16,28,19.50
2005,09,26,16,29,19.40
2005,09,26,16,30,19.40
2005,09,26,16,31,19.40
2005,09,26,16,32,19.40
2005,09,26,16,33,19.40
2005,09,26,16,34,19.40
2005,09,26,16,35,19.40
2005,09,26,16,36,19.30
2005,09,26,16,37,19.20
2005,09,26,16,38,19.20
2005,09,26,16,39,19.10
2005,09,26,16,40,19.10
2005,09,26,16,41,19.00
2005,09,26,16,42,18.90
2005,09,26,16,43,18.90
2005,09,26,16,44,18.90
2005,09,26,16,45,18.90
2005,09,26,16,46,19.00
2005,09,26,16,47,19.10
2005,09,26,16,48,19.10
2005,09,26,16,49,19.10
2005,09,26,16,50,19.10
2005,09,26,16,51,19.00
2005,09,26,16,52,18.90
2005,09,26,16,53,18.90
2005,09,26,16,54,18.90
2005,09,26,16,55,18.90
2005,09,26,16,56,18.90
2005,09,26,16,57,18.90
2005,09,26,16,58,18.90
2005,09,26,16,59,18.80
2005,09,26,17,00,18.80
2005,09,26,17,01,18.80
2005,09,26,17,02,18.80
2005,09,26,17,03,18.80
2005,09,26,17,04,18.90
2005,09,26,17,05,18.90
2005,09,26,17,06,18.90
2005,09,26,17,07,18.90
2005,09,26,17,08,18.80
2005,09,26,17,09,18.80
2005,09,26,17,10,18.80
2005,09,26,17,11,18.70
2005,09,26,17,12,18.70
2005,09,26,17,13,18.80
2005,09,26,17,14,18.80
2005,09,26,17,15,18.80
2005,09,26,17,16,18.80
2005,09,26,17,17,18.80
2005,09,26,17,18,18.70
2005,09,26,17,19,18.70
2005,09,26,17,20,18.70
2005,09,26,17,21,18.70
2005,09,26,17,22,18.70
2005,09,26,17,23,18.70
2005,09,26,17,24,18.70
2005,09,26,17,25,18.70
2005,09,26,17,26,18.70
2005,09,26,17,27,18.70
2005,09,26,17,28,18.70
2005,09,26,17,29,18.70
2005,09,26,17,30,18.70
2005,09,26,17,31,18.70
2005,09,26,17,32,18.60
2005,09,26,17,33,18.60
2005,09,26,17,34,18.60
2005,09,26,17,35,18.50
2005,09,26,17,36,18.50
2005,09,26,17,37,18.50